Tracking 29892 objects as of 21-Nov-2024
HD Live streaming from Space Station
objects crossing your sky now

NOAA 16 DEB

Track NOAA 16 DEB now!
10-day predictions


NORAD ID: 41205
Int'l Code: 2000-055DJ
Perigee: 733.3 km
Apogee: 754.2 km
Inclination: 99.0 °
Period: 99.5 minutes
Semi major axis: 7114 km
RCS: Unknown
Launch date: September 21, 2000
Source: United States (US)
Launch site: AIR FORCE WESTERN TEST RANGE (AFWTR)

Note: This is SATELLITE DEBRIS
Your satellite tracking list
Your tracking list is empty




NASA's NSSDC Master Catalog

Two Line Element Set (TLE):
1 41205U 00055DJ  24324.91608849  .00028067  00000-0  77420-2 0  9997
2 41205  98.9513 114.3445 0014689   8.4151 351.7282 14.46662278462992
Source of the keplerian elements: AFSPC